Location: Bonfeld
(49.2134°N, 9.0950°E)
Time: 10:15:33
(UTC+00:00)

Daily predictions for brighter satellites

Satellite Brightness Start Highest point End
(mag) Time Altitude Azimuth Time Altitude Azimuth Time Altitude Azimuth
Cosmos 1455 Rocket 3.0 19:31:48 10° S 19:36:10 72° E 19:40:33 10° NNE
Cosmos 1892 Rocket 3.5 19:32:02 10° N 19:36:22 86° E 19:40:40 10° S
USA 306 2.4 19:33:04 10° WSW 19:36:31 61° NNW 19:38:57 10° ENE
CZ-4B R/B 4.4 19:35:51 10° ESE 19:38:03 16° ENE 19:40:18 10° NNE
Okean O Rocket 2.1 19:34:52 10° SE 19:38:55 44° ENE 19:43:02 10° N
Cosmos 2100 Rocket 4.4 19:34:23 10° SSW 19:40:37 72° W 19:46:59 10° N
Meteor 1-27 4.2 19:36:26 10° S 19:42:02 74° E 19:47:37 10° NNE
Cosmos 2228 3.1 19:38:24 10° S 19:42:23 53° E 19:46:24 10° NNE
SPOT 5 4.3 19:39:04 10° SSW 19:42:57 32° W 19:46:56 10° NNW
NOSS 3-4 (A) 4.5 19:36:51 10° NW 19:43:00 45° NE 19:50:12 10° ESE
SL-24 R/B 4.4 19:38:58 10° NNE 19:43:15 80° WNW 19:47:58 10° SSW
SL-16 R/B 2.9 19:38:02 10° NNW 19:43:27 44° NE 19:48:51 10° SE
USA 186 2.5 19:41:09 10° SE 19:43:34 29° ENE 19:46:01 10° N
NOSS 3-4 (C) 4.5 19:37:28 10° NW 19:43:39 45° NE 19:50:52 10° ESE
Okean 1 Rocket 4.3 19:44:24 10° SSW 19:48:38 45° WNW 19:52:55 10° N
Cosmos 2233 Rocket 4.0 19:45:01 10° S 19:51:06 64° E 19:57:11 10° NNE
Cosmos 2084 Rocket 3.9 19:47:08 10° NW 19:51:14 54° SW 19:55:22 10° SSE
ATLAS 2AS CENTAUR R/B 4.4 19:45:58 10° W 19:52:16 36° NNW 19:58:30 10° NE
CZ-2C R/B 4.4 19:56:24 10° E 19:57:18 11° ENE 19:58:12 10° NE
SKYMED 3 4.3 19:53:23 10° NNE 19:57:22 82° ESE 20:01:20 10° SSW
COSMOS 2406 3.6 19:52:53 10° S 19:58:18 44° ESE 20:03:43 10° NE
Cosmos 1980 Rocket 3.3 19:53:40 10° NW 19:58:58 40° WSW 20:04:12 10° S
Okean-O 2.6 19:55:22 10° SSE 19:59:42 69° ENE 20:04:04 10° N
Cosmos 1782 2.6 19:56:18 10° SSW 19:59:48 77° W 20:03:21 10° N
CZ-4 R/B 3.1 19:57:04 10° SSW 20:00:13 28° W 20:03:24 10° NW
Ariane Rocket 3.9 19:58:02 11° SE 20:02:24 34° ENE 20:06:57 10° N
Cosmos 1933 4.2 20:02:11 12° SSE 20:05:08 28° E 20:08:25 10° NNE
SPOT 3 Rocket 4.0 20:01:10 11° SE 20:05:48 46° ENE 20:10:42 10° N
Cosmos 1758 Rocket 3.8 20:02:19 10° N 20:06:40 55° ENE 20:10:37 12° SSE
Spot 2 Rocket 3.5 20:02:39 10° SSE 20:07:40 89° ENE 20:12:44 10° NNW
Cosmos 1725 Rocket 4.4 20:03:36 10° SSW 20:09:50 69° WNW 20:16:05 10° N
Cosmos 2333 Rocket 2.5 20:05:44 10° NNW 20:11:23 60° ENE 20:16:16 14° SE
ERS-1 Rocket 4.1 20:09:09 10° SSW 20:13:51 41° W 20:18:37 10° NNW
Tsikada Rocket 4.2 20:12:18 10° NNW 20:18:27 75° W 20:24:34 10° S
USA 245 4.3 20:19:40 13° SSE 20:24:58 71° ENE 20:30:30 10° N
Cosmos 2360 Rocket 2.8 20:19:46 10° NNW 20:25:15 47° NE 20:29:39 16° ESE
Cosmos 1461 2.6 20:22:38 10° SSW 20:26:15 53° SE 20:29:52 10° NE
CZ-4B R/B 4.3 20:21:35 10° S 20:26:56 43° W 20:32:16 10° NNW
CZ-4B R/B 3.6 20:25:36 16° SE 20:29:14 57° ENE 20:34:01 10° N
CZ-4C R/B 3.8 20:26:11 10° W 20:30:22 34° NNW 20:35:41 10° NE
Cosmos 1602 Rocket 3.7 20:26:37 10° N 20:30:52 55° ENE 20:33:49 19° SSE
Cosmos 1992 Rocket 4.1 20:25:40 10° SSW 20:30:53 82° WNW 20:36:07 10° NNE
YAOGAN 11 4.2 20:29:36 10° NNE 20:34:04 83° WNW 20:38:32 10° SSW
ISS -3.1 20:34:02 10° W 20:37:20 54° N 20:40:38 10° ENE
Cosmos 1777 Rocket 4.3 20:32:27 10° NNW 20:37:37 55° ENE 20:41:10 20° SE
Cosmos 2219 Rocket 3.1 20:33:18 10° NNW 20:38:37 39° NE 20:42:48 16° ESE
Cosmos 220 Rocket 4.0 20:36:01 13° S 20:39:27 50° ESE 20:43:27 10° NNE
Meteor 1-25 Rocket 4.2 20:33:51 10° N 20:39:32 74° ENE 20:43:46 18° SSE
Cosmos 1437 Rocket 2.4 20:36:40 14° S 20:39:40 76° E 20:43:16 10° NNE
USA 290 3.6 20:39:46 21° ESE 20:39:47 21° ESE 20:42:14 10° NE
SL-08 R/B 4.3 20:39:38 10° N 20:44:17 48° WNW 20:48:49 10° SW
Cosmos 1503 Rocket 4.4 20:41:03 10° NNW 20:46:07 50° ENE 20:49:23 21° SE
DEBRIS 3.6 20:43:48 10° W 20:47:03 89° N 20:57:35 10° E
Cosmos 1626 Rocket 4.2 20:42:56 10° NNW 20:47:12 54° W 20:51:00 13° S
Cosmos 2098 Rocket 3.4 20:44:23 19° SSE 20:47:34 51° E 20:51:38 10° NNE
Cosmos 1076 Rocket 4.5 20:45:37 10° N 20:49:30 33° ENE 20:51:27 22° ESE
NOSS 3-3 (A) 4.3 20:44:20 10° SW 20:49:34 64° NW 20:55:56 10° NE
Terra 4.0 20:48:12 10° SW 20:51:42 21° W 20:55:14 10° NW
Cosmos 2151 3.3 20:51:10 10° NNW 20:55:14 58° W 20:58:09 18° S
Cosmos 2322 Rocket 2.2 20:51:28 10° NNW 20:57:10 81° ENE 21:00:46 23° SSE
Cosmos 1513 Rocket 4.4 20:51:10 11° S 20:57:17 85° E 21:03:27 10° N
Cosmos 1486 Rocket 4.0 20:51:59 10° NNW 20:57:17 87° ENE 21:00:35 24° SSE
IRS-1C Rocket 4.1 20:53:40 20° SSE 20:57:25 87° WSW 21:02:43 10° NNW
Cosmos 1464 Rocket 4.0 20:53:50 18° S 20:58:27 62° E 21:04:33 10° NNE
Cosmos 2082 Rocket 3.7 20:56:11 10° WSW 21:01:31 39° NW 21:06:51 10° NNE
USA 306 3.7 21:01:29 10° WNW 21:03:37 21° NNW 21:04:50 12° NE
Cosmos 1606 Rocket 3.6 21:03:17 27° SSE 21:05:29 58° E 21:09:44 10° NNE
Meteor 2-10 4.2 20:59:55 10° N 21:05:42 78° ENE 21:09:14 24° SSE
CZ-4B R/B 3.5 21:09:42 21° SSW 21:11:30 39° W 21:14:47 10° NNW
Cosmos 1766 4.2 21:09:51 10° NNE 21:12:33 24° ENE 21:13:02 23° E
USA 186 4.2 21:11:39 10° WSW 21:13:01 13° W 21:14:23 10° WNW
Cosmos 1726 Rocket 3.6 21:12:34 33° SSE 21:13:59 50° E 21:17:54 10° NNE
Cosmos 2237 Rocket 4.4 21:10:56 10° N 21:14:37 17° NE 21:18:16 10° ENE
Okean O Rocket 3.6 21:11:58 10° SW 21:15:19 22° W 21:18:40 10° NW
Cosmos 1428 Rocket 4.5 21:09:08 10° N 21:15:24 78° E 21:19:09 25° SSE
Cosmos 540 Rocket 3.8 21:13:17 27° SSE 21:15:33 44° ESE 21:20:25 10° NE
Cosmos 1072 Rocket 4.5 21:11:32 16° S 21:16:39 88° E 21:23:03 10° N
Cosmos 1092 Rocket 4.5 21:11:14 10° N 21:17:10 47° ENE 21:20:29 25° SE
Aureole 1 Rocket 4.5 21:13:10 10° NNW 21:18:39 48° ENE 21:22:39 23° SE
Cosmos 1805 3.4 21:18:02 10° NNW 21:21:13 49° W 21:22:21 32° SSW
Cosmos 2278 4.3 21:17:33 10° NW 21:23:04 50° WSW 21:26:23 23° S
Meteor 1-5 Rocket 4.5 21:19:58 10° NNW 21:25:42 70° W 21:29:21 24° S
COSMOS 2428 3.9 21:21:15 10° NNW 21:26:24 33° NE 21:30:13 16° ESE
SL-16 R/B 3.2 21:22:18 10° NW 21:27:28 37° WSW 21:30:55 19° SSW
CZ-2C R/B 2.9 21:27:14 34° SW 21:27:43 38° W 21:30:21 10° NNW
Okean 1-7 Rocket 3.9 21:23:56 10° NNW 21:28:22 64° W 21:30:35 28° S
Geosat 4.2 21:28:30 10° NE 21:33:21 47° ESE 21:35:08 33° SSE
NOSS 3-4 (A) 4.0 21:27:33 10° NW 21:34:13 62° SW 21:38:39 27° SSE
NOSS 3-4 (C) 4.0 21:28:12 10° NW 21:34:53 62° SW 21:39:18 27° SSE
Cosmos-2242 3.3 21:34:03 39° SE 21:34:57 47° E 21:38:55 10° NNE
Cosmos 2034 Rocket 4.0 21:32:54 25° S 21:36:50 79° E 21:43:12 10° NNE
Ariane Rocket 4.0 21:38:06 19° SSW 21:41:14 38° W 21:45:57 10° NNW
USA 234 4.3 21:42:14 10° ENE 21:47:10 24° ESE 21:47:10 24° ESE
TSX-5 4.1 21:46:38 10° NNW 21:49:37 40° NE 21:50:06 37° ENE
Nadezhda 4 Rocket 4.5 21:46:33 10° NNW 21:52:28 52° W 21:56:13 23° SSW
Cosmos 2333 Rocket 3.7 21:50:38 10° NW 21:55:16 26° WSW 21:58:17 17° SW
Helios 1B rocket 2.1 21:55:11 55° ESE 21:55:34 59° ENE 21:59:02 10° N
Cosmos 2279 Rocket 4.5 21:53:17 31° SE 21:55:44 45° E 22:01:39 10° NNE
Cosmos 1763 Rocket 3.6 21:53:12 22° SSW 21:56:38 80° WNW 22:01:56 10° NNE
Okean 1 4.0 21:56:18 28° SW 21:57:39 42° WNW 22:01:06 10° N
Cosmos 1470 3.4 21:55:10 10° N 21:58:11 32° ENE 21:58:12 32° ENE
Cosmos 1536 2.5 21:55:04 10° N 21:58:45 74° ENE 21:59:12 63° SE
Cosmos 2221 3.6 21:59:07 27° E 21:59:24 27° E 22:02:56 10° NNE
Cosmos 1707 2.3 21:59:51 60° N 21:59:51 60° N 22:02:16 10° N
Cosmos 1898 Rocket 4.0 21:54:50 10° NNW 21:59:54 51° ENE 22:02:03 31° ESE
Cosmos 1634 Rocket 4.0 21:57:45 34° SSE 22:00:31 68° E 22:06:41 10° NNE
CSL-04 DEB 4.2 22:01:35 55° ESE 22:02:00 61° ENE 22:05:35 10° N
Cosmos 2297 Rocket 3.8 22:01:44 18° ESE 22:02:10 18° E 22:05:53 10° ENE
Cosmos 1833 4.2 21:57:58 19° SSW 22:02:10 81° WNW 22:07:50 10° NNE
CZ-2C R/B 4.3 21:59:25 10° NNE 22:03:38 39° E 22:04:14 37° ESE
Cosmos 1953 Rocket 3.9 21:59:23 10° NNW 22:03:38 56° W 22:04:56 39° SSW
Cosmos 44 3.4 21:59:37 10° NW 22:05:03 83° SW 22:06:56 42° SSE
Cosmos 990 Rocket 4.3 22:00:01 10° NNW 22:05:04 55° WSW 22:06:54 36° SSW
Cosmos 2360 Rocket 3.3 22:04:02 10° NW 22:09:05 34° WSW 22:11:23 25° SSW
Meteor 2-6 Rocket 4.4 22:08:15 37° SSE 22:10:31 63° E 22:16:24 10° NNE
Cosmos 2322 3.8 22:05:40 10° NNW 22:11:22 69° ENE 22:13:46 35° SE
USA 290 4.2 22:12:10 17° WSW 22:13:47 25° WNW 22:16:28 10° N
ISS -3.8 22:10:58 10° WNW 22:14:19 79° N 22:14:19 79° N
Cosmos 2026 Rocket 4.3 22:08:52 10° NNW 22:15:09 62° W 22:18:17 30° SSW
BREEZE-M DEB (TANK) 4.2 22:13:11 10° W 22:13:11 10° W 22:13:11 10° W
Cosmos 2058 Rocket 3.0 22:14:25 47° SSW 22:15:36 77° W 22:19:57 10° N
GP-B 4.5 22:14:31 10° NNE 22:18:10 25° E 22:18:52 24° E
Helios 1A 3.2 22:17:35 10° N 22:21:26 58° WNW 22:22:30 41° SW
Cosmos 2219 Rocket 2.9 22:17:18 10° NW 22:22:36 42° WSW 22:24:29 32° SSW
Cosmos 2266 Rocket 4.5 22:18:30 10° N 22:24:20 48° ENE 22:26:50 31° SE
KORONAS-FOTON 3.6 22:25:06 68° W 22:25:07 68° W 22:28:31 10° N
Cosmos 1975 2.8 22:21:39 10° N 22:25:17 56° ENE 22:25:24 55° E
Cosmos 841 Rocket 3.7 22:28:15 45° SE 22:29:19 53° ESE 22:34:24 10° NNE
RESURS DK-1 2.1 22:28:13 10° NNW 22:32:13 84° ENE 22:32:35 72° SE
ARIANE 5 R/B 2.6 22:32:16 57° SSE 22:33:10 82° ENE 22:37:39 10° NNW
Meteor 1-19 Rocket 4.5 22:32:11 41° SSE 22:33:59 59° E 22:39:49 10° NNE
ALOS 2 2.6 22:33:58 54° SE 22:34:50 71° ENE 22:39:13 10° N
Cosmos 2322 Rocket 4.0 22:36:43 10° WNW 22:40:29 19° W 22:42:34 15° SW
Cosmos 1271 Rocket 2.7 22:46:13 62° WNW 22:46:13 62° WNW 22:49:27 10° N
Cosmos 372 Rocket 4.3 22:41:49 10° NNW 22:46:46 53° WSW 22:47:53 44° SSW
SL-16 R/B 4.3 22:42:50 10° N 22:47:13 22° NE 22:51:36 10° E
Cosmos 1842 3.6 22:47:39 44° WNW 22:47:39 44° WNW 22:50:27 10° N
Lacrosse 4 Rocket 3.2 22:51:57 18° E 22:51:57 18° E 22:53:57 10° ENE
Spot 4 3.9 22:51:57 52° SSW 22:52:57 68° WSW 22:57:44 10° NNW
Meteor 2-9 Rocket 4.2 22:48:58 10° NNW 22:54:21 71° W 22:55:56 46° SSW
PSLV R/B 3.5 22:51:11 10° NNE 22:55:29 72° ESE 22:55:59 64° SSE
Cosmos 2237 Rocket 2.5 22:54:10 10° NNW 22:59:50 64° ENE 23:02:17 34° SE
CZ-2C R/B 3.1 22:58:57 33° ESE 23:00:56 51° ENE 23:05:58 10° N
BREEZE-M DEB (TANK) 4.1 22:46:30 10° WSW 23:01:43 90° NW 23:05:29 10° ENE
Cosmos 1980 3.8 22:58:20 10° NNW 23:04:00 73° ENE 23:06:13 38° SE
ARGOS Delta rocket 4.0 22:59:44 10° N 23:04:55 81° WNW 23:06:31 46° SSW
Cosmos 858 Rocket 4.4 23:00:09 10° NNW 23:05:22 88° ENE 23:06:42 51° SSE
Cosmos 1937 Rocket 3.5 23:03:20 10° NNW 23:08:26 63° WSW 23:09:27 51° SSW
COSMOS 2428 3.0 23:05:22 10° NW 23:10:53 52° WSW 23:12:11 43° SSW
Cosmos 2227 Rocket 3.4 23:11:04 25° ESE 23:12:02 27° ESE 23:16:41 10° NE
Meteor 2-4 Rocket 4.1 23:11:49 39° SE 23:13:13 47° E 23:18:29 10° NNE
NOSS 0 Rocket 3.9 23:07:27 10° NW 23:13:35 66° WSW 23:15:26 44° S
Meteor 1-11 Rocket 3.7 23:08:30 10° NNW 23:14:10 74° W 23:15:45 48° S
MetOp-A 3.7 23:18:10 56° S 23:19:13 86° WSW 23:23:56 10° NNW
Meteor 1-10 Rocket 4.3 23:17:23 43° SSW 23:19:27 80° WNW 23:25:26 10° N
Cosmos 2263 Rocket 3.7 23:20:54 19° ESE 23:22:00 20° E 23:25:59 10° NE
Cosmos 1812 Rocket 4.0 23:25:18 46° WSW 23:26:06 53° WNW 23:30:27 10° N
Cosmos 1238 Rocket 2.9 23:25:54 63° ESE 23:26:07 64° E 23:30:24 10° NNE
USA 234 3.2 23:24:31 10° ENE 23:31:05 73° SE 23:34:30 31° SW
SeaSat 1 3.0 23:28:37 26° ESE 23:31:09 53° NE 23:35:56 10° NNW
CZ-2C R/B 3.3 23:28:02 10° NNE 23:33:51 89° ESE 23:35:48 45° SSW
Meteor 1-27 Rocket 3.7 23:32:34 46° S 23:34:27 89° W 23:40:14 10° NNE
ACS3 Solar Sail 2.7 23:29:35 10° NNE 23:35:05 37° E 23:37:20 28° SE
Cosmos 2221 3.7 23:35:23 28° W 23:36:19 31° WNW 23:40:05 10° N
ATLAS 2AS CENTAUR R/B 4.3 23:31:57 10° NW 23:38:04 34° NNE 23:44:10 10° E
Meteor 2-20 Rocket 4.2 23:37:28 46° S 23:39:17 85° E 23:45:01 10° N
BlueWalker 3 3.4 23:41:18 24° E 23:41:18 24° E 23:42:58 10° ENE
Cosmos 2297 Rocket 2.2 23:43:29 42° SW 23:45:29 82° WNW 23:51:10 10° NNE
Okean 3 Rocket 4.3 23:43:37 10° N 23:48:01 49° ENE 23:49:21 37° ESE
Landsat 5 3.3 23:47:16 10° NNE 23:51:22 71° ESE 23:51:40 67° SE
Cosmos 1842 Rocket 3.5 23:53:33 59° SSE 23:54:13 71° E 23:58:38 10° NNE
GP-B 4.0 23:51:16 10° NNW 23:55:16 36° W 23:56:01 33° WSW
